DIRECTV 8 (28659 NORAD) Tracking and Keplerian Element Data

This shows tracking and keplerian element data for the satellite.

Feedback or suggestion? Click here.




ElementValue
Catalog28659
NameDIRECTV 8
Epoch Orbit7207
Epoch Day34.67397501
Epoch Year2025
RAAN87.9811
Inclination0.0183
Eccentricity0.0003222
Argument of Perigee238.5938
Mean Anonmoly291.0838
Mean Motion1.00272181
Decay Rate6E-08
L11 28659U 05019A 25034.67397501 .00000006 00000+0 00000+0 0 9991
L22 28659 0.0183 87.9811 0003222 238.5938 291.0838 1.00272181 72074



Live tracking and technical data element details for DIRECTV 8 (NORAD 28659). DIRECTV 8 can be tracked NOW for your location showing map with azimuth and elevation plus other details from your city location.







IsCatalogInMostPopularTable: catalog: 28659, numindb: 609
Update: records affected: 1



GetName: 28659 DIRECTV 8

Hit Count: updated at: Thu, 15 May 2025 09:31:03 GMT